{"data":{"norad_id":61853,"intl_designator":"2024-202J","name":"STARLINK-32394","alt_names":[],"object_type":"PAYLOAD","status":"ACTIVE","operator":null,"country":"US","launch_date":"2024-11-07","launch_site_code":"AFETR","launch_vehicle":null,"mission":null,"orbit_class":"UNKNOWN","rcs_meters":null,"size_class":null,"mass_kg":null,"dimensions":null,"purposes":["comms"],"wikipedia_slug":null,"has_3d_model":false,"image_url":null,"decayed_at":null,"tle_current":{"epoch":"2026-09-21T05:07:31.543392Z","epoch_age_seconds":126859,"freshness":"FRESH","line1":"1 61853U 24202J   26264.21355953 -.00004338  00000+0 -14827-3 0  9990","line2":"2 61853  43.0011 213.5008 0001381 263.9780  96.0914 15.27566326105234","mean_motion":15.27566326,"eccentricity":0.0001381,"inclination_deg":43.0011,"raan_deg":213.5008,"arg_perigee_deg":263.978,"mean_anomaly_deg":96.0914,"bstar":-0.00014827,"rev_number":10523,"period_min":94.267592541838,"perigee_km":482.14250576589,"apogee_km":484.03757667467,"semimajor_km":6861.2270412203,"source":"CELESTRAK","updated_at":"2026-09-22T09:00:49.441304Z"}}}